Theta_e
292 284 283 281 282 285 286 286 287 285 286 286 285 286 285 284 286 287 288 292 290 289 286 285 285 285 291 305 317 321 321 320 320 320 319 320 320 320 320 321 321 321 320 317 317 319 320 320 320 319 319 321 321 322 322 322 322 323 324 324 323 321 322 323 323 323 322 320 317 316 318 318 317 321 320 320 317 322 322 324 324 326 325 326 327 326
288 284 283 285 287 287 288 287 288 288 288 288 286 286 284 284 283 288 288 289 292 289 285 285 285 288 294 303 317 318 317 317 318 318 318 319 320 320 320 320 320 320 315 315 315 317 318 319 319 319 318 319 320 320 321 321 321 322 323 324 322 320 321 322 323 324 322 318 319 317 317 314 316 319 318 317 315 317 320 321 322 325 324 324 325 327
283 284 286 288 289 289 289 289 289 289 287 287 286 284 285 283 285 287 288 290 292 291 285 286 286 287 293 302 313 315 317 318 319 318 318 318 318 319 320 320 319 317 315 313 315 316 318 318 318 318 318 319 321 321 320 320 320 320 321 322 320 320 320 319 321 322 320 315 317 315 314 318 313 313 315 315 318 318 314 314 315 317 318 324 324 325
283 282 287 289 289 289 289 289 289 288 287 285 283 283 283 283 285 282 286 289 292 290 287 285 288 288 289 293 304 310 313 305 308 310 312 317 318 319 319 320 317 317 313 312 314 315 316 317 316 316 317 319 319 320 319 319 320 319 320 319 319 318 316 317 320 321 316 318 316 315 315 313 313 315 317 314 314 313 313 313 313 315 314 320 323 325
284 288 292 289 289 289 289 288 288 286 285 285 286 281 282 285 284 285 287 288 289 292 288 286 284 284 285 297 299 305 303 302 306 310 308 311 316 317 317 318 317 315 313 312 312 314 315 316 316 317 317 316 318 319 319 319 319 320 318 318 318 316 315 316 320 318 318 317 315 314 315 316 314 314 312 312 312 312 317 314 312 311 312 317 321 323
286 289 290 290 288 289 288 286 287 287 282 283 285 288 286 284 288 287 286 287 279 284 289 284 276 281 283 284 293 298 300 302 302 307 308 310 311 313 313 314 313 314 313 313 312 313 314 315 315 315 317 317 318 319 319 320 320 318 317 318 316 314 315 316 316 318 319 318 316 315 314 312 310 310 310 309 310 309 309 310 311 309 310 312 314 316
287 290 290 289 288 288 287 286 286 289 282 283 286 288 288 286 287 287 288 285 280 281 288 287 280 277 278 287 289 289 293 299 300 304 307 308 310 310 311 311 313 313 312 310 310 313 314 314 315 316 317 318 318 319 319 319 318 318 318 317 316 315 315 315 316 318 319 316 316 317 316 315 313 312 308 307 308 309 310 309 308 307 309 309 311 313
290 290 289 289 288 286 286 285 287 288 284 282 286 287 287 287 288 288 285 284 282 284 289 285 281 282 283 285 286 288 291 293 297 300 303 307 309 310 310 311 312 313 313 312 311 313 314 314 316 317 318 318 319 319 319 319 318 317 317 317 316 316 316 314 316 317 318 317 315 314 313 313 311 311 310 310 310 310 310 307 307 307 307 309 310 312
290 289 288 288 286 285 285 286 288 289 286 285 289 287 287 288 287 286 285 282 283 283 282 281 285 281 279 281 286 289 290 291 295 299 301 304 306 309 309 310 311 313 313 313 311 312 314 315 316 317 318 318 318 319 320 319 319 317 317 317 315 316 315 313 315 317 316 318 316 315 313 312 310 310 312 313 312 309 308 306 305 307 307 308 309 311
289 290 290 290 287 287 286 286 290 291 288 289 289 288 288 288 288 285 281 285 280 280 277 282 284 281 277 277 283 286 287 286 291 295 300 303 305 307 308 309 311 312 312 312 312 312 314 314 316 316 317 318 318 318 319 318 317 316 316 316 316 314 313 313 314 316 315 315 315 313 312 311 311 313 311 310 308 306 305 305 305 305 306 307 308 309
290 296 296 291 289 288 288 288 290 291 291 290 287 286 285 283 282 282 281 281 280 274 276 280 282 281 279 278 285 285 287 286 286 288 289 297 303 305 307 309 311 311 312 312 311 312 313 313 314 316 318 318 316 316 317 318 317 315 315 314 314 312 311 312 313 314 314 313 314 313 312 311 311 311 311 309 306 305 305 305 305 305 305 306 307 310
289 289 292 290 296 291 289 287 288 287 288 289 285 282 284 282 280 280 277 278 274 272 276 279 281 283 280 279 283 285 288 288 289 290 291 291 300 303 305 308 311 311 311 311 311 311 311 311 312 314 315 315 315 315 316 316 317 315 314 314 314 311 311 311 312 312 313 313 312 313 312 312 312 312 312 310 307 305 305 304 305 304 305 305 306 307
288 288 286 290 300 292 288 286 285 285 284 286 284 283 279 276 272 276 274 276 274 274 284 281 282 283 280 279 286 288 290 291 291 291 293 292 292 298 304 307 310 310 310 311 311 310 310 311 312 314 314 313 313 317 317 317 316 315 314 314 314 312 310 311 311 311 311 311 312 312 312 312 313 312 312 310 308 305 305 305 305 304 304 304 306 306
283 284 287 289 290 294 290 286 285 284 283 284 284 279 277 272 268 269 269 270 276 279 281 282 284 280 280 285 288 289 292 293 293 295 293 292 293 295 303 306 309 309 310 310 310 309 309 309 310 311 313 316 316 316 318 317 317 316 315 314 314 313 310 310 310 310 311 311 312 312 312 313 314 312 312 311 310 308 308 307 306 305 305 305 305 305
276 280 285 286 287 291 290 289 289 284 283 285 283 285 282 275 273 268 273 270 275 276 279 282 282 279 281 283 290 292 293 297 299 301 300 300 298 300 304 306 306 306 305 307 307 308 310 311 311 312 313 315 315 316 316 317 317 316 315 314 314 312 310 310 310 311 311 313 314 314 315 315 314 313 313 312 313 310 309 308 306 304 303 305 304 305
281 278 284 288 291 290 290 290 287 284 284 283 283 284 282 280 278 279 275 276 276 277 277 282 279 281 282 288 291 291 294 298 300 301 303 302 303 303 304 305 305 307 308 309 309 311 311 311 310 312 314 314 315 315 315 316 316 316 315 314 313 312 310 310 311 312 313 315 315 315 314 314 316 316 314 313 313 311 310 309 307 305 304 304 305 305
281 282 287 287 290 288 290 291 290 288 282 284 284 282 282 284 284 275 275 278 273 274 274 273 280 281 283 288 290 289 295 296 298 299 301 301 302 303 303 305 307 309 309 309 310 311 312 313 312 314 314 314 315 315 315 316 316 316 314 313 312 311 311 312 313 314 314 315 314 314 314 314 314 314 314 314 312 311 310 309 307 306 305 305 305 307
280 277 283 286 288 290 289 290 289 289 288 284 281 283 287 288 287 281 275 271 268 269 271 276 277 277 277 278 286 290 291 293 297 297 298 300 301 303 303 304 305 306 307 308 310 310 312 314 313 314 313 314 314 314 313 314 313 314 314 314 313 312 312 313 314 315 314 314 314 314 314 315 314 314 314 314 313 312 310 308 307 306 306 306 307 308
284 280 281 285 287 288 289 288 289 289 288 284 283 288 286 280 280 279 277 269 271 270 270 276 277 277 278 280 283 287 287 290 295 295 298 299 300 301 303 305 306 308 308 308 309 309 309 309 311 311 311 312 312 312 311 311 313 313 313 314 313 312 313 314 315 316 316 316 315 315 315 315 314 314 315 315 314 312 311 309 308 307 307 306 308 311
283 279 280 284 286 288 286 284 281 283 287 286 288 286 285 282 279 278 275 278 276 268 267 274 275 275 282 279 287 287 287 288 290 295 296 297 299 301 300 302 305 306 307 308 309 309 307 307 309 309 309 310 309 309 310 311 312 312 313 313 313 315 316 316 315 316 315 316 316 315 316 315 315 315 315 315 314 313 312 310 309 308 307 308 310 308
283 281 277 284 286 287 285 284 282 281 281 284 282 280 282 281 283 282 282 280 275 269 265 269 270 275 280 284 288 289 289 290 290 294 294 296 299 300 301 302 303 304 305 305 306 306 307 306 305 305 307 309 309 309 308 308 309 311 312 313 313 314 315 315 314 313 314 316 316 316 315 315 315 315 315 315 315 315 313 312 311 309 309 309 309 309
281 281 281 280 283 280 284 288 287 284 282 282 281 282 280 279 281 278 275 280 277 275 269 269 267 275 283 290 291 290 291 291 291 293 295 297 297 297 299 301 302 305 304 305 304 304 305 305 305 306 306 307 307 307 307 307 309 310 311 312 313 314 314 314 314 314 314 316 316 315 315 315 314 315 315 314 313 312 311 312 310 309 309 309 310 310
285 281 280 280 283 284 286 288 288 288 288 285 285 284 281 280 277 276 271 277 278 279 277 277 274 277 286 289 289 290 291 292 292 296 296 296 296 296 298 300 301 302 303 304 304 304 304 303 303 305 306 304 303 304 305 306 308 309 309 311 312 313 313 314 314 315 314 314 315 315 314 314 314 314 314 312 311 311 311 310 310 311 309 308 308 309
301 279 279 280 280 283 287 288 289 287 285 285 285 282 282 283 284 279 275 277 277 278 276 274 273 276 284 290 289 291 293 292 294 295 296 295 296 297 298 299 300 301 302 302 301 303 303 303 304 306 305 305 304 304 304 305 306 306 308 309 310 312 313 313 313 314 314 313 313 312 312 313 313 313 313 311 310 310 310 311 311 312 310 309 309 309
284 283 282 277 275 278 279 281 281 284 283 281 282 281 282 282 280 279 279 278 278 279 276 277 272 275 286 290 290 290 292 293 294 296 297 296 296 297 298 298 299 300 301 301 302 302 303 304 304 304 304 304 304 304 304 305 305 306 306 307 309 310 312 313 313 313 313 313 312 311 312 312 312 313 312 311 311 311 312 312 312 312 311 310 310 310
285 283 280 274 273 270 269 270 272 276 281 280 282 280 282 281 281 281 281 275 275 278 278 273 270 277 282 288 288 289 289 290 292 293 296 294 294 296 297 298 299 300 300 301 301 303 303 303 303 304 303 303 302 303 303 303 304 305 306 306 307 310 310 311 312 313 313 312 312 311 311 311 311 311 311 311 311 311 312 313 313 313 313 313 312 312
282 284 282 279 279 278 278 278 281 282 281 280 282 280 281 280 280 280 277 271 274 276 275 277 280 281 282 284 285 286 287 288 289 291 291 292 292 293 294 296 297 298 299 300 300 301 302 302 301 301 301 301 301 300 301 303 304 305 305 306 307 309 310 311 313 314 313 312 312 312 312 311 311 311 311 312 312 312 313 313 313 314 313 314 313 313
285 282 283 283 282 282 282 282 284 283 280 280 280 282 281 280 279 279 278 279 279 281 274 280 280 279 280 282 283 284 286 288 290 290 291 292 292 292 293 294 297 295 295 295 295 295 296 297 298 298 298 298 299 300 301 302 302 304 304 306 306 306 308 310 311 312 313 312 312 311 310 310 311 312 312 312 312 313 313 313 313 314 314 314 313 313
284 280 285 284 282 283 283 284 286 285 284 283 282 280 281 281 281 279 280 280 280 274 276 279 280 279 280 281 283 284 285 288 289 291 292 292 293 294 293 293 293 293 294 294 294 294 294 294 294 294 295 295 296 297 299 299 300 302 303 304 304 305 306 306 308 309 310 310 310 310 311 310 311 312 313 313 313 313 313 313 313 314 314 314 313 314
285 281 284 285 283 284 284 285 286 285 284 284 283 281 280 281 280 281 280 280 280 279 279 280 280 279 281 282 283 285 286 289 289 291 293 292 292 293 293 292 293 293 293 293 293 294 294 295 295 295 295 295 295 295 296 297 298 298 299 301 302 303 305 306 307 307 307 309 309 309 310 310 311 312 312 312 313 313 313 313 313 313 313 314 314 314
288 281 288 284 281 282 284 285 286 285 285 283 283 282 281 282 282 282 282 282 283 281 280 281 279 279 282 284 285 286 286 287 288 287 288 290 291 292 292 292 292 293 293 293 293 294 294 294 294 295 295 295 295 295 295 295 296 296 297 297 298 301 301 306 306 306 305 307 306 307 307 308 309 309 310 311 311 310 311 311 311 311 312 312 313 313
285 280 283 281 279 279 282 284 284 285 285 283 282 283 282 281 280 280 279 281 279 280 279 280 278 275 282 284 284 284 285 285 285 285 286 287 289 290 290 290 290 291 292 293 294 294 294 294 293 294 295 295 295 296 296 296 296 296 296 296 296 297 298 301 303 304 304 304 304 306 306 306 307 307 308 308 309 309 309 308 309 309 309 309 309 309
281 283 280 278 278 275 281 282 283 283 281 280 277 281 281 281 281 281 281 282 281 280 279 278 277 279 281 285 282 283 284 284 284 285 285 285 286 287 288 289 289 289 290 290 292 293 294 294 293 293 295 296 296 297 297 297 297 296 296 295 296 297 295 295 296 297 299 299 302 303 303 304 306 307 307 307 307 306 306 306 307 307 306 307 308 307
281 283 278 280 275 275 279 279 281 278 270 270 279 283 283 280 281 280 279 280 282 281 279 278 281 280 281 282 282 282 283 284 284 285 286 285 285 285 286 286 287 288 289 289 289 290 292 294 295 295 295 296 297 297 296 298 298 297 297 296 296 295 295 295 295 295 296 296 299 301 302 303 304 304 305 304 303 303 305 305 305 305 306 307 307 307
280 279 277 276 272 274 276 277 274 269 271 281 283 284 286 284 283 281 281 281 282 283 283 282 282 283 283 283 284 284 284 285 285 285 286 286 286 285 285 286 286 287 288 288 288 289 290 292 294 293 294 296 298 298 298 299 298 298 299 297 296 295 295 296 296 296 295 295 296 296 298 300 301 303 302 301 302 302 303 303 302 304 305 306 307 307
279 280 277 274 271 272 270 270 268 266 278 281 282 283 285 284 283 283 281 282 282 281 282 281 282 283 283 284 285 285 285 285 285 286 285 286 286 285 285 285 286 286 286 287 287 287 288 290 292 294 294 296 296 297 297 298 299 299 298 297 297 296 296 296 295 295 295 296 295 295 296 297 297 297 297 298 298 299 299 298 300 300 299 302 300 301
281 280 277 274 276 272 268 264 268 277 278 279 278 281 281 281 281 278 274 278 282 281 281 280 281 282 283 283 283 283 284 283 281 283 286 285 286 286 286 286 286 286 286 287 287 287 288 288 290 293 294 293 293 294 293 295 298 299 299 298 298 298 298 298 299 298 297 296 295 298 296 296 296 296 295 296 297 296 295 295 295 295 296 298 297 298
282 281 278 278 274 270 270 267 267 266 266 274 278 280 283 283 283 281 278 277 282 280 282 281 279 280 281 282 281 282 283 282 279 279 283 285 285 286 286 286 286 286 286 286 286 287 287 288 289 292 292 291 292 292 292 293 296 297 297 298 298 298 299 299 299 299 299 298 297 297 297 296 296 297 296 296 297 296 296 295 296 297 297 300 298 299
283 281 280 280 272 270 268 269 267 267 268 275 279 281 282 281 281 280 276 275 279 279 280 279 279 279 280 280 281 281 280 278 277 279 282 284 284 285 285 285 286 286 286 285 285 286 287 288 289 291 290 289 290 290 291 292 293 294 294 294 295 295 296 296 298 300 300 300 298 296 296 298 299 299 298 297 298 298 297 296 297 296 294 295 297 297
281 277 275 273 270 271 268 267 267 264 270 278 279 280 282 280 281 279 270 268 278 280 280 279 279 279 280 280 280 280 277 274 278 279 283 284 285 285 286 286 286 287 288 288 288 288 289 289 288 288 288 287 288 288 289 290 290 292 293 293 292 292 293 295 297 299 300 299 298 297 297 298 299 299 299 299 298 297 296 296 296 295 295 294 296 296
273 274 275 272 268 271 272 267 267 269 276 280 280 282 281 283 281 273 268 270 280 280 281 279 279 280 279 279 279 277 281 280 281 283 283 283 284 285 286 286 286 287 288 288 289 291 288 287 286 287 287 287 288 287 288 288 289 290 290 290 290 291 292 294 295 296 296 297 298 298 299 298 299 299 299 299 298 297 297 296 296 294 295 295 293 293
272 270 272 271 270 267 265 269 268 267 274 280 280 282 282 282 272 267 273 279 280 281 282 281 281 281 280 280 280 280 281 281 283 282 282 282 282 283 284 285 285 286 287 288 289 289 287 286 286 287 287 288 289 289 288 287 288 289 289 288 289 290 292 292 292 293 293 294 295 296 296 297 297 299 300 298 298 298 297 296 296 296 294 294 293 293
274 270 271 270 271 268 266 267 269 269 276 282 282 280 281 273 272 280 281 282 282 282 281 282 281 282 281 282 281 281 280 281 281 282 282 283 283 284 284 284 284 285 285 286 286 287 288 287 287 287 287 288 288 288 288 287 287 288 289 288 290 290 290 290 290 291 292 292 293 294 295 295 296 297 299 298 298 298 297 296 297 295 295 294 293 293
279 272 272 271 276 268 267 267 268 273 278 283 280 275 280 282 283 284 283 282 284 283 282 282 283 284 283 283 282 282 282 281 282 282 282 282 283 283 284 284 285 285 286 286 286 286 287 286 286 286 287 287 288 288 288 287 287 288 289 289 291 290 290 290 290 289 290 292 293 294 296 296 296 296 296 296 296 296 295 295 295 295 295 294 294 293
279 276 276 273 279 274 272 274 279 281 282 284 285 284 285 287 288 288 287 286 285 286 285 284 285 285 284 284 283 282 281 281 281 281 281 281 282 282 282 283 283 284 284 284 285 286 286 285 285 285 286 286 287 287 288 288 287 288 288 289 291 291 291 291 291 290 290 290 291 292 293 294 295 297 296 296 295 296 297 297 294 294 292 293 293 293
281 280 280 280 278 283 284 284 285 285 286 286 288 289 288 288 288 288 288 286 286 286 285 286 286 285 284 283 284 281 280 280 281 281 281 281 281 282 283 282 282 283 283 283 283 284 285 284 284 284 284 285 286 287 288 288 287 287 288 289 290 291 291 291 292 292 292 291 290 291 291 292 292 293 294 295 294 296 295 297 294 294 291 291 291 291
277 278 277 276 280 276 272 282 282 283 284 286 286 288 288 288 287 287 286 285 286 285 285 285 284 283 283 281 281 281 280 279 280 280 280 280 280 281 281 281 281 282 282 282 283 284 283 283 283 283 284 284 285 285 286 287 288 288 289 289 290 290 290 290 290 292 293 293 292 291 291 291 292 292 292 292 292 293 295 295 295 294 294 293 292 291
277 279 276 276 274 268 270 279 280 281 282 283 283 284 285 285 286 286 285 286 285 285 284 284 283 282 280 280 280 280 279 279 279 279 279 280 280 280 281 281 281 282 282 283 283 283 283 282 282 282 283 283 284 285 285 286 286 288 289 289 289 289 289 289 289 289 291 293 294 294 293 292 290 292 292 290 291 292 292 291 293 294 294 294 294 294
277 279 270 275 275 277 278 278 278 279 279 280 280 281 280 282 283 284 283 283 283 283 282 282 281 281 280 280 280 280 279 279 278 279 279 280 280 280 280 281 281 281 282 282 283 283 282 282 283 283 283 283 284 284 285 285 286 287 287 288 289 288 288 288 288 289 289 290 291 292 293 293 293 292 291 289 286 285 286 288 289 291 292 291 295 296
277 274 275 275 271 269 271 277 279 273 270 278 279 281 283 282 282 281 280 281 280 280 280 280 280 280 280 280 280 280 278 279 279 278 279 280 280 280 280 281 281 281 282 283 283 283 283 284 283 283 284 284 285 284 285 285 285 286 287 287 288 288 288 288 288 288 288 289 289 290 291 291 292 292 291 290 288 288 288 286 287 287 289 290 291 292
277 277 272 265 269 267 274 278 281 277 275 277 281 282 281 282 282 282 281 280 281 280 279 279 279 280 280 280 280 280 279 279 280 278 279 280 281 282 282 282 282 282 282 283 284 284 284 284 285 285 285 285 286 286 286 286 286 286 286 286 287 287 288 288 287 287 288 288 288 289 290 290 290 291 290 291 290 290 289 287 289 288 287 287 289 290
Wind_Speed
2 3 4 4 6 6 4 6 6 5 4 3 2 2 3 2 6 4 5 7 2 1 4 6 5 5 6 8 11 11 8 6 7 8 7 6 7 7 7 9 8 8 8 2 4 5 5 6 5 3 3 4 5 6 7 7 6 7 8 7 7 5 6 7 7 6 6 5 3 2 2 3 2 3 2 1 1 2 3 3 4 3 3 3 3 3
4 2 5 7 9 8 5 4 2 4 1 1 0 0 5 2 4 5 3 4 1 4 0 2 5 7 5 3 8 8 8 10 11 9 8 8 8 7 8 9 10 7 1 3 3 4 5 6 7 5 4 4 7 5 7 8 7 6 6 8 7 5 6 6 7 7 5 3 4 5 4 2 2 2 2 0 0 1 2 2 2 3 3 3 3 3
1 3 7 8 3 3 3 4 1 3 2 2 1 1 1 6 5 9 4 2 2 1 1 1 5 2 1 2 4 11 14 8 9 9 7 7 8 7 8 9 7 5 6 4 4 5 6 6 6 6 5 5 6 7 7 6 6 5 7 6 6 6 6 6 6 7 6 3 2 3 4 5 3 1 1 1 1 2 4 4 4 4 2 3 2 2
2 6 10 4 5 4 0 2 4 3 2 3 3 1 4 3 2 4 4 1 5 3 0 3 7 1 3 1 2 2 2 1 2 3 4 6 8 10 10 8 7 8 7 7 7 6 5 5 5 4 5 7 5 5 5 5 7 6 6 5 6 5 4 6 6 6 3 5 5 6 6 4 3 4 3 3 3 3 4 5 4 4 4 3 3 3
8 3 1 7 5 7 4 3 4 3 2 1 5 3 2 2 3 5 4 5 3 1 5 6 6 2 5 2 3 5 1 1 2 5 3 4 4 3 3 4 6 8 7 6 5 6 7 7 6 6 4 3 5 6 7 7 7 6 6 6 7 7 6 6 7 7 7 7 7 6 6 5 5 4 4 4 3 3 3 3 5 4 3 4 5 4
8 7 2 1 4 2 3 2 6 7 2 1 6 9 8 3 2 3 3 3 3 1 4 1 3 1 4 5 6 2 1 5 1 5 5 5 6 5 7 7 4 5 5 7 5 4 4 4 4 4 4 5 5 6 6 5 6 5 6 6 5 5 6 7 7 7 7 7 8 6 6 5 4 3 3 3 2 2 3 3 0 3 5 4 4 4
6 1 5 4 4 4 4 4 4 7 4 2 4 8 6 4 2 1 1 2 1 3 1 1 4 1 5 2 2 1 3 5 1 2 4 6 7 7 7 6 7 7 5 3 3 4 6 6 6 5 7 7 7 6 5 5 5 6 7 7 7 8 6 5 6 6 6 6 6 7 7 6 7 7 1 0 0 3 2 3 5 4 4 4 5 4
1 0 3 3 5 3 3 3 5 9 7 2 2 4 4 4 2 3 5 2 1 1 3 5 3 6 1 2 2 2 1 3 5 5 5 7 7 8 6 6 6 7 6 6 6 6 6 6 9 10 8 7 7 6 6 6 5 7 8 7 7 6 6 5 6 7 7 9 6 6 5 5 5 5 5 4 4 2 3 6 4 5 4 4 4 5
4 2 1 1 2 2 4 5 4 8 7 3 4 7 6 4 3 5 3 3 0 1 2 6 5 5 1 3 3 2 1 4 9 9 7 8 7 7 7 7 7 7 8 7 8 8 10 10 9 6 7 5 5 5 8 8 7 6 6 7 5 6 6 6 7 8 6 7 8 7 7 5 2 4 5 4 3 4 3 7 3 5 4 5 4 4
2 4 2 3 2 3 6 4 8 10 5 3 6 5 6 7 6 3 4 2 2 3 2 1 3 2 2 3 4 3 0 4 7 9 8 9 10 8 8 6 6 6 6 5 6 6 7 6 6 4 4 5 5 4 2 3 4 5 5 6 6 6 5 5 6 6 6 6 7 7 6 8 5 5 4 4 4 3 3 6 4 4 5 5 5 4
3 5 5 3 4 5 2 0 6 4 2 6 5 7 6 8 4 3 6 2 3 1 3 2 4 2 0 3 6 3 2 2 4 5 4 3 6 7 8 9 8 8 7 7 6 6 6 5 5 5 7 6 4 4 4 4 4 4 4 5 4 4 3 4 5 5 6 6 6 7 8 9 8 6 6 5 3 3 3 6 4 5 5 4 5 4
3 2 0 2 1 2 3 3 3 1 1 4 1 3 5 3 6 4 4 5 2 2 4 3 2 0 4 2 1 4 6 5 4 8 9 5 9 10 9 8 8 7 6 7 7 6 7 6 4 4 4 4 3 3 3 3 2 3 4 5 5 4 4 4 4 5 6 6 5 5 8 8 8 8 7 7 6 3 4 4 5 3 5 4 4 3
2 4 2 7 3 7 2 5 3 2 3 5 6 7 5 1 3 1 4 1 2 3 1 3 2 1 2 3 1 2 5 6 5 7 10 6 4 4 5 9 9 8 7 8 7 6 6 7 7 5 4 4 4 6 5 4 3 3 4 5 7 5 4 5 3 3 4 4 5 5 5 4 4 4 5 6 5 3 4 5 5 4 5 4 5 3
6 3 4 5 3 2 5 6 1 1 1 5 5 5 5 2 2 2 2 0 3 4 3 1 3 1 3 5 1 3 4 5 7 6 6 8 7 7 8 7 8 8 8 7 5 3 4 5 4 3 4 5 6 5 6 5 4 4 4 5 7 6 3 2 2 3 5 3 6 8 7 5 2 3 4 5 5 3 2 4 5 4 5 5 4 4
0 2 5 2 3 1 3 7 11 8 7 7 3 9 7 8 5 2 3 3 6 5 2 3 1 3 2 1 5 3 4 4 3 3 4 3 1 3 5 6 6 5 4 6 8 9 8 7 4 2 3 5 5 4 5 5 5 4 5 5 6 4 4 4 4 4 6 10 9 8 8 7 6 1 0 1 3 5 3 3 5 3 3 5 3 3
5 5 6 4 0 1 3 1 4 5 4 0 2 6 6 5 7 2 4 3 3 3 2 1 2 1 1 2 5 3 4 7 6 7 6 7 5 4 6 7 7 7 9 9 10 10 9 6 3 3 9 5 5 6 5 5 5 6 5 4 3 5 4 4 5 6 9 10 9 8 8 4 1 1 0 1 2 2 3 3 5 4 3 3 3 2
1 1 1 7 0 3 2 2 1 5 3 2 3 4 4 2 10 6 2 1 3 5 3 0 4 3 6 2 2 6 6 6 7 7 6 6 6 6 6 5 6 8 9 8 8 7 9 9 1 10 13 9 6 6 7 7 6 6 4 4 6 5 4 6 7 5 6 10 10 7 5 4 4 3 4 3 3 4 3 2 4 4 3 3 3 3
4 4 3 2 1 3 2 1 2 2 5 7 2 5 2 3 6 7 3 3 3 4 3 2 0 4 3 2 5 5 5 4 6 7 4 5 5 8 5 5 5 5 4 3 4 4 6 14 18 14 6 3 4 4 4 4 4 4 4 7 8 7 6 4 10 13 9 8 7 8 10 8 7 6 3 2 2 1 3 2 3 3 3 3 2 3
4 2 2 2 2 6 5 3 6 2 3 4 3 5 3 1 2 2 6 1 1 0 1 0 0 3 3 2 3 3 3 4 3 4 4 4 5 5 5 7 7 9 7 4 5 1 2 2 2 4 4 2 2 1 2 3 4 5 5 6 7 7 8 9 10 10 9 9 6 5 7 8 6 5 5 4 5 4 2 2 3 3 3 3 3 3
2 4 4 1 2 2 3 3 4 2 3 3 3 3 1 3 1 4 4 4 7 3 3 2 2 2 4 2 0 3 3 4 2 3 1 1 3 4 2 4 5 10 10 3 5 4 3 3 4 5 5 5 4 2 3 4 5 6 6 8 8 8 9 10 10 7 6 6 8 8 5 3 3 4 5 6 7 7 8 6 4 4 4 6 4 4
2 1 3 1 3 1 1 2 3 4 5 2 3 2 1 3 2 4 2 2 3 7 4 4 1 3 3 3 1 4 4 4 3 3 1 1 1 1 0 3 4 5 6 4 4 4 3 2 3 4 4 4 4 4 4 4 4 5 6 7 8 10 9 10 7 5 4 5 6 7 7 8 5 5 5 5 7 8 8 7 5 5 3 4 4 5
3 1 6 3 4 2 1 1 2 3 3 5 5 2 5 6 4 4 3 1 2 4 4 5 3 5 5 2 5 4 4 4 3 3 2 0 2 2 2 2 2 5 6 7 4 3 3 3 3 3 5 5 6 5 5 4 5 4 5 5 7 7 7 8 8 8 8 7 6 7 7 7 6 6 5 5 5 2 2 4 6 4 1 2 3 6
3 4 6 3 1 1 0 3 3 3 4 6 6 1 4 2 5 5 4 3 3 1 4 3 6 2 2 5 5 4 3 3 2 4 4 1 2 3 4 4 6 5 3 4 3 4 3 2 2 4 6 6 5 4 3 3 4 5 5 5 6 7 7 7 8 6 7 7 7 7 5 5 5 6 6 5 3 3 4 3 5 5 4 1 2 3
4 2 4 1 2 4 4 3 1 2 1 6 6 3 1 1 0 3 1 5 7 2 1 1 1 2 2 5 5 6 4 4 6 4 4 3 2 3 4 4 4 4 4 4 3 3 3 1 1 6 7 7 6 5 4 2 2 3 3 4 5 6 7 6 5 6 6 6 6 4 4 5 5 5 5 5 4 3 3 4 4 6 6 5 5 5
1 1 7 3 2 4 3 3 3 4 5 3 2 2 1 3 4 2 4 1 6 5 5 7 5 2 1 6 7 11 10 10 9 7 6 5 4 3 4 3 3 2 2 3 4 3 3 5 7 7 6 5 3 3 1 0 2 3 4 4 4 4 5 5 4 5 6 6 6 5 6 6 6 7 5 5 6 5 5 5 5 5 7 7 7 6
6 1 2 5 7 5 4 2 2 1 1 0 0 3 3 4 2 0 1 1 3 2 3 3 2 3 2 8 12 12 11 10 9 6 6 4 4 5 5 5 6 6 7 7 8 10 11 10 9 10 9 8 6 2 1 1 2 3 3 3 4 5 4 5 4 5 6 5 6 6 6 6 6 7 6 6 6 6 6 7 7 6 6 8 9 7
4 2 3 4 6 7 5 4 2 2 2 3 0 3 1 2 2 3 5 4 4 3 1 2 5 4 5 11 11 12 9 9 9 9 9 8 8 7 6 6 5 5 6 8 8 9 9 11 11 9 8 6 4 4 3 3 1 2 3 3 3 4 5 5 6 6 6 6 6 7 7 6 6 6 7 7 7 7 7 7 8 8 8 8 9 8
4 4 1 8 7 0 2 1 1 2 4 3 2 3 3 5 2 4 1 2 1 9 1 1 1 5 3 5 7 9 9 7 7 8 8 9 9 7 5 7 11 12 12 12 12 12 10 9 9 10 9 9 8 7 7 5 5 4 1 2 2 3 3 4 4 5 5 6 5 4 4 3 5 5 5 5 5 6 6 7 6 6 7 9 9 7
4 3 2 4 4 5 5 5 3 6 6 3 3 3 5 7 9 4 0 0 1 2 7 2 5 6 1 3 4 4 4 5 6 8 6 4 7 10 13 14 13 12 12 13 11 11 11 10 9 10 10 9 9 10 8 7 7 6 5 3 3 3 2 2 3 3 4 5 7 7 6 5 4 5 6 6 7 7 7 8 8 9 8 7 7 7
6 1 1 4 7 8 9 7 5 9 3 5 8 7 3 10 5 5 4 4 1 4 6 11 12 7 1 2 3 3 3 4 5 5 10 14 11 10 13 13 12 11 11 10 9 8 8 8 9 9 10 11 11 11 10 9 8 6 5 5 3 3 1 3 2 3 3 4 5 4 4 5 5 6 6 7 8 9 8 7 7 7 8 8 7 6
5 2 5 4 4 1 1 2 4 7 4 3 3 4 4 6 10 6 4 3 9 7 4 11 12 7 2 1 3 3 3 3 11 15 11 9 10 11 12 11 10 9 7 7 7 7 6 8 8 9 10 10 10 10 10 9 8 8 7 6 5 3 2 1 2 2 3 3 3 3 3 4 5 4 5 5 4 4 4 3 3 3 2 4 6 7
5 3 2 3 6 1 1 0 2 3 2 1 0 1 2 4 6 2 3 1 2 7 5 7 8 4 2 2 3 4 6 13 12 9 10 9 9 11 12 11 10 9 9 7 7 6 8 8 8 9 8 8 9 9 10 10 10 10 10 8 6 4 3 1 2 3 3 2 3 3 4 4 3 3 3 3 4 4 2 1 1 1 2 4 4 5
1 7 5 4 7 3 1 2 6 8 7 3 2 2 1 3 4 4 2 4 2 2 6 8 5 2 2 1 6 6 10 9 10 7 7 8 8 8 9 8 7 8 8 8 9 8 7 6 6 6 7 6 8 8 8 7 9 10 9 10 7 5 4 1 2 2 2 2 3 3 3 3 4 4 5 5 4 3 2 3 3 3 3 4 3 4
1 6 3 1 5 3 2 3 1 3 3 4 2 3 1 3 4 9 3 3 4 2 1 3 6 3 4 4 9 6 9 7 5 3 3 4 6 7 7 6 6 5 5 6 6 7 7 7 7 6 5 5 5 5 4 4 6 6 6 8 8 9 7 5 3 1 0 1 3 4 4 5 4 4 4 3 3 3 4 3 4 3 4 4 4 4
3 4 2 1 6 5 2 2 3 2 5 2 6 2 2 5 8 14 7 5 5 5 7 9 7 6 5 5 7 7 7 5 5 6 6 4 4 5 5 6 6 6 6 7 8 7 6 5 7 9 10 9 7 6 7 8 6 6 8 9 9 8 9 9 8 7 4 0 0 2 3 3 5 6 5 3 3 4 4 4 3 4 5 5 6 6
2 6 3 3 3 3 3 2 3 4 2 3 3 4 4 4 2 10 9 5 5 3 1 5 3 3 3 4 4 5 6 6 5 6 6 4 4 4 6 5 5 6 7 5 5 6 6 6 5 5 6 5 6 7 7 7 6 6 5 4 6 6 6 6 7 7 8 8 3 1 2 2 3 3 3 3 3 3 3 3 4 6 4 4 3 1
7 4 4 3 1 5 2 3 0 3 1 3 2 1 0 0 1 2 6 0 2 2 2 4 3 1 1 1 1 1 1 1 5 6 4 5 4 3 3 3 3 4 4 5 4 4 4 4 5 5 4 6 5 6 6 6 7 5 7 7 6 6 6 7 8 7 8 7 7 6 1 2 2 3 3 3 3 3 3 3 3 3 3 5 4 5
3 2 3 6 1 6 7 4 3 4 1 6 5 1 1 0 0 3 6 0 2 3 1 1 3 1 2 1 2 1 2 2 4 3 4 4 3 4 4 3 3 3 4 4 4 5 6 5 6 6 6 6 6 5 5 5 6 6 5 6 6 7 7 4 4 4 4 5 6 7 4 3 3 3 3 4 6 5 4 3 3 4 3 6 5 4
6 7 5 4 4 4 4 6 4 7 7 5 3 2 3 2 2 3 4 1 0 1 2 3 4 2 2 4 1 2 3 2 1 2 3 3 4 4 4 4 4 3 4 4 5 6 7 7 6 5 6 7 8 9 7 5 4 5 5 3 3 4 6 6 6 5 5 6 4 4 4 3 2 3 3 3 4 6 6 6 5 3 3 4 5 5
9 5 4 3 3 1 6 4 3 3 1 0 2 3 3 1 4 3 2 5 2 1 0 2 4 2 1 1 4 6 4 2 1 3 1 3 2 3 2 4 5 5 4 4 4 4 5 5 7 8 8 8 7 7 8 6 5 4 4 4 3 4 6 7 7 7 7 7 5 4 3 1 2 3 4 5 3 3 4 4 5 5 6 4 5 5
5 3 6 1 3 2 5 0 2 2 3 2 3 4 4 2 3 5 8 3 1 0 0 2 1 1 0 3 1 4 0 1 1 3 5 4 5 6 5 4 4 4 6 7 7 6 6 6 5 6 7 7 7 6 6 5 6 6 5 4 4 4 6 6 5 6 6 7 7 5 5 3 2 4 5 4 4 3 2 3 6 5 6 7 6 6
3 2 1 3 5 1 2 6 3 1 2 1 4 3 3 3 4 6 2 2 2 0 0 0 1 0 2 2 1 1 1 3 4 4 4 4 3 4 4 6 7 6 4 4 5 5 5 4 4 5 7 8 10 9 7 6 5 6 5 4 5 6 5 5 6 6 6 6 6 7 6 5 5 2 4 3 4 6 5 5 6 7 6 6 6 7
1 2 1 1 0 2 3 3 2 1 1 4 4 2 4 3 1 3 3 0 1 0 1 1 1 2 0 2 1 0 2 3 3 4 4 5 5 6 6 7 7 7 8 8 8 7 7 8 7 6 5 6 6 7 8 7 7 7 6 7 8 7 4 4 4 5 5 6 6 5 6 4 2 4 4 3 4 4 6 3 6 5 6 7 6 7
0 2 0 0 1 3 1 2 2 0 3 5 2 3 1 2 6 3 4 2 1 1 0 1 1 1 1 1 3 4 2 3 2 2 4 4 5 6 6 7 7 7 7 5 4 5 5 5 6 8 8 7 7 7 6 6 7 8 8 10 9 7 5 4 4 3 4 6 7 6 6 4 3 3 2 3 3 5 3 3 1 4 5 6 7 6
4 2 1 3 2 1 2 3 3 0 2 4 6 6 3 3 3 2 4 3 2 0 1 1 1 3 2 2 3 3 4 4 4 3 3 3 4 4 5 6 6 7 7 7 9 8 6 7 8 9 9 7 6 6 6 5 6 8 9 10 8 8 8 8 7 4 5 6 6 6 7 5 5 6 4 4 3 1 4 1 3 1 2 6 6 6
2 3 3 6 3 5 7 6 3 1 2 6 6 4 5 3 3 3 3 2 1 0 2 0 1 1 3 1 2 3 3 4 6 7 7 6 7 6 5 6 5 4 5 5 6 7 8 9 9 8 10 11 7 7 5 6 5 8 10 9 9 8 8 8 9 9 7 6 4 6 5 5 5 6 6 5 4 4 3 8 8 6 5 5 5 5
1 0 2 5 4 3 1 2 2 4 3 2 2 2 1 2 1 1 3 2 1 2 1 1 0 1 1 3 1 2 3 4 5 6 6 6 7 7 8 8 7 6 7 9 7 7 8 7 9 10 10 12 9 7 9 7 8 8 8 8 8 8 8 7 8 9 8 8 6 4 3 4 5 6 6 6 5 6 6 5 6 6 6 6 7 5
2 1 7 2 3 2 2 5 3 1 0 1 0 2 2 1 2 2 1 0 1 3 2 1 3 3 2 3 1 1 2 2 3 5 5 5 6 7 7 8 9 10 9 7 8 8 8 8 9 10 10 11 10 8 9 10 10 9 8 8 7 7 7 7 7 7 8 9 8 6 5 5 6 6 6 5 5 7 8 7 7 8 9 9 9 9
1 1 2 2 3 1 3 3 2 3 3 2 2 1 1 1 0 1 3 3 3 4 4 4 3 3 3 3 3 1 1 3 2 4 5 7 7 7 7 8 8 9 9 11 11 9 9 9 11 11 11 11 9 9 9 10 10 9 9 9 7 6 6 8 7 7 8 8 7 8 7 6 5 5 5 4 2 1 1 3 3 4 5 5 6 11
2 3 1 4 5 1 5 5 5 3 2 4 3 3 2 1 1 1 1 2 3 4 3 4 2 0 1 1 0 1 3 4 4 3 5 6 7 8 9 9 9 10 11 9 9 10 11 11 10 12 12 11 9 9 10 10 10 9 9 8 7 6 7 8 8 8 8 7 7 7 7 6 6 5 3 2 3 1 1 3 2 2 4 6 5 7
2 3 4 4 7 2 4 6 7 4 1 4 6 4 3 0 1 0 0 1 0 1 2 3 1 2 2 3 0 1 3 4 5 4 5 7 8 8 8 10 11 11 11 11 11 12 11 12 12 13 13 12 10 10 10 11 10 10 9 8 8 8 9 8 8 8 8 7 7 8 7 7 7 6 6 6 5 5 5 2 5 8 7 5 6 7
Wind_Direction
147 135 181 198 212 217 226 186 188 194 141 114 103 128 205 214 279 279 272 259 94 114 234 219 196 198 225 187 179 177 161 167 178 183 177 172 165 170 188 196 198 204 220 183 167 169 172 164 167 193 199 184 169 159 153 156 164 167 170 162 176 167 157 143 140 139 141 131 109 84 140 158 187 156 139 122 74 135 145 152 153 165 161 160 156 151
69 96 256 216 210 197 211 166 110 84 83 140 151 226 297 174 251 243 240 331 297 165 259 204 164 209 231 203 172 158 157 186 190 183 185 188 181 182 189 198 198 195 130 133 148 168 172 168 169 162 180 182 164 179 157 161 172 171 167 178 168 160 167 154 153 152 151 171 171 157 167 152 129 125 120 173 298 151 122 127 142 157 158 170 170 143
21 209 241 221 183 141 125 136 158 177 141 58 189 206 279 270 244 282 280 312 314 175 264 143 144 232 332 225 192 179 188 199 196 194 195 182 180 184 196 207 191 172 197 181 185 178 185 177 169 163 165 186 187 172 167 158 154 168 176 177 162 167 161 148 148 151 160 163 141 128 149 133 107 64 67 80 33 82 89 59 71 95 130 158 156 124
298 285 253 203 147 122 66 105 114 77 67 124 90 86 218 237 32 303 285 316 359 54 185 102 94 10 334 325 286 275 189 358 123 132 157 186 201 201 207 201 186 197 188 198 189 186 185 177 167 166 172 181 170 162 159 158 166 173 177 164 159 158 145 147 155 152 145 121 107 86 105 90 117 142 119 95 72 68 76 56 53 53 73 125 130 123
204 204 85 119 145 155 173 177 124 120 227 269 171 162 252 267 241 165 273 342 313 38 87 75 52 6 360 128 254 246 273 32 90 126 143 175 180 206 227 218 200 196 193 196 193 185 181 181 180 178 179 156 166 174 174 173 174 174 170 164 159 154 156 163 153 149 139 116 93 96 88 90 81 58 54 59 29 34 74 74 48 32 50 87 115 120
278 251 167 128 166 182 149 144 203 145 199 288 229 194 199 187 230 272 345 19 25 355 21 97 44 6 300 289 227 282 148 241 253 165 188 177 181 180 208 205 191 194 190 195 196 200 190 177 162 163 165 172 179 182 186 175 169 157 160 151 145 142 155 159 160 156 144 135 133 125 115 104 83 98 101 115 127 45 47 82 33 57 60 75 93 99
210 315 146 194 163 181 183 199 227 164 165 79 265 201 188 178 171 72 6 78 11 118 338 52 132 256 324 289 250 316 251 236 293 206 205 193 191 195 209 193 191 185 187 183 177 163 171 185 171 180 181 185 180 189 164 162 172 168 163 162 158 161 164 163 161 157 135 131 146 153 155 154 160 149 199 141 140 128 106 89 71 59 49 62 95 94
132 262 77 63 98 114 146 252 241 146 113 226 246 132 115 123 147 137 104 114 188 251 295 47 102 126 119 282 308 311 293 258 270 247 229 219 202 200 202 196 190 187 181 179 187 182 184 190 190 188 183 183 184 171 165 171 173 174 168 163 166 166 163 171 161 162 159 149 154 136 130 144 148 150 146 143 129 124 130 88 74 72 54 53 69 99
160 180 175 87 98 112 186 210 190 147 137 217 194 146 159 159 156 118 79 96 237 137 255 328 355 74 263 264 328 6 116 276 250 239 225 224 217 205 195 199 196 189 185 182 184 184 185 190 195 182 183 177 162 174 179 182 181 176 168 162 161 169 168 173 176 164 169 152 152 148 139 114 91 114 119 121 99 114 114 94 69 78 71 62 55 71
281 188 210 147 141 249 229 212 160 172 154 260 148 84 76 66 63 93 102 79 334 61 273 283 13 138 279 285 335 353 239 275 255 252 233 210 212 200 191 195 197 189 188 188 189 183 186 190 191 185 150 161 179 174 191 178 161 172 162 166 169 176 177 174 179 166 156 146 139 136 135 126 124 115 95 96 107 102 105 97 84 82 74 73 69 63
253 294 171 130 206 208 159 180 183 167 94 117 97 65 26 35 28 18 59 90 66 26 267 259 310 140 204 252 193 121 229 212 288 296 278 235 198 198 193 187 186 188 184 184 184 181 178 174 169 164 180 176 147 152 175 186 184 168 166 162 164 180 183 183 181 165 151 139 145 142 144 143 140 138 129 113 94 98 88 99 78 81 84 78 86 83
345 351 248 250 97 109 113 75 37 83 91 139 67 114 58 358 10 29 346 41 96 274 263 279 251 155 148 300 320 252 301 293 272 277 283 247 209 194 187 187 181 177 179 176 174 169 158 147 155 154 164 155 160 144 186 210 171 166 160 157 164 170 186 190 185 168 149 143 146 145 149 149 149 146 144 144 155 163 135 122 107 93 84 69 79 78
311 246 239 319 241 164 115 77 350 26 9 75 78 50 115 248 42 264 7 180 174 182 226 317 282 43 209 214 189 275 277 294 261 243 266 277 279 239 190 179 173 169 166 176 174 162 158 159 157 159 143 132 158 191 190 198 204 178 167 174 171 188 182 196 190 144 125 137 153 149 137 119 123 126 137 143 146 174 147 137 115 105 101 98 86 75
281 289 337 282 339 176 129 127 131 53 357 112 153 136 97 87 53 193 286 271 313 282 253 330 279 226 259 300 314 324 280 260 279 281 264 265 245 213 182 171 164 164 168 167 149 116 72 58 63 81 155 189 191 190 187 187 191 195 187 185 182 185 139 87 94 128 144 118 62 48 38 40 74 128 146 152 146 163 167 147 138 146 149 136 142 143
24 349 291 162 220 298 157 173 181 172 169 205 127 145 178 144 156 194 192 171 201 192 280 291 64 222 134 241 331 303 279 307 321 332 345 346 269 167 140 130 123 122 88 81 70 73 76 65 65 46 227 200 202 200 188 183 190 185 194 188 188 155 107 118 157 143 85 71 78 76 63 36 350 8 311 101 136 142 171 143 126 138 140 129 153 123
189 200 257 230 289 113 160 191 119 93 60 98 163 83 98 212 148 135 204 142 155 131 35 215 213 184 168 287 299 319 358 16 2 15 21 32 19 62 99 112 118 108 107 108 106 100 98 99 86 219 248 228 201 196 187 188 183 189 196 180 100 90 115 141 135 123 128 129 118 105 95 94 292 304 132 141 113 136 137 163 138 155 149 131 122 82
26 279 287 321 108 175 200 127 247 135 187 232 103 184 206 150 105 95 64 42 98 62 195 277 318 318 304 6 338 348 37 2 10 7 23 39 51 53 62 80 101 114 115 114 114 126 125 94 3 258 246 220 204 197 194 185 181 182 167 127 106 125 130 164 165 115 69 68 72 76 83 129 189 212 202 177 185 161 131 161 141 145 160 123 106 100
145 240 300 62 18 23 3 162 74 5 140 97 163 229 170 132 116 123 149 338 58 142 238 31 192 302 40 227 329 18 39 356 12 0 360 37 56 79 67 68 64 51 48 78 104 122 173 174 199 220 246 245 219 205 180 168 158 150 136 130 139 140 137 71 55 52 68 99 130 151 152 187 198 183 175 178 177 158 115 150 124 116 136 147 121 108
116 312 301 268 240 286 356 56 46 354 36 152 195 163 112 211 169 343 99 114 115 207 264 347 16 267 166 245 351 25 9 330 7 7 18 36 58 71 94 101 99 83 59 57 87 358 321 349 355 344 326 348 9 44 94 100 98 95 97 111 120 113 99 99 106 137 157 158 161 157 165 188 186 168 164 170 158 139 113 178 160 162 165 131 134 117
44 162 286 296 155 327 13 66 176 276 338 20 81 72 356 104 149 126 195 165 119 194 83 264 49 208 219 215 208 271 265 274 296 54 4 8 90 110 121 118 125 123 119 175 147 113 63 51 42 39 31 19 13 27 57 94 97 104 114 115 115 116 130 141 163 161 130 146 155 176 172 182 206 171 173 183 165 154 176 191 182 163 175 175 145 130
125 112 201 286 304 39 105 4 189 162 129 60 38 344 20 36 210 103 41 80 156 160 172 159 308 285 273 236 311 304 266 254 219 168 263 313 17 47 151 124 103 102 132 128 75 80 84 85 75 72 73 68 46 40 48 58 90 102 105 117 130 138 150 162 153 119 142 165 180 170 181 188 192 183 184 196 184 204 186 165 161 187 207 145 156 145
87 120 191 307 23 21 235 280 268 232 172 140 145 150 167 117 121 129 216 52 75 105 192 124 222 269 271 283 294 289 278 259 230 171 170 334 10 27 348 23 89 102 94 99 96 65 49 39 66 82 79 68 60 35 47 49 72 87 98 120 135 146 164 162 161 161 169 183 181 191 184 180 175 181 190 225 209 200 293 154 150 154 123 256 177 156
145 149 94 74 136 72 264 309 309 345 105 115 121 132 139 122 104 95 137 231 47 47 118 152 118 256 280 312 321 303 291 269 199 145 120 58 31 34 33 26 25 35 28 36 55 53 42 9 23 69 69 70 80 87 94 70 105 121 131 135 151 162 186 187 178 174 176 186 191 196 180 175 183 180 184 210 219 178 181 156 134 136 130 91 22 16
105 75 66 337 326 306 308 292 333 11 62 53 34 71 75 71 215 173 175 180 134 176 71 25 87 229 302 349 338 358 8 39 53 46 85 45 16 36 59 45 38 37 21 47 30 38 34 14 35 51 44 39 34 33 31 42 122 125 130 144 153 168 183 196 190 176 184 194 208 191 161 185 194 191 187 191 207 182 161 142 140 128 117 108 92 78
101 312 112 97 19 337 343 348 357 329 54 66 82 11 84 98 70 152 112 34 103 207 168 127 186 232 345 351 11 23 22 36 35 36 58 51 357 18 39 40 46 35 43 34 30 1 357 12 27 40 41 39 40 43 18 213 184 155 142 143 149 150 164 186 191 182 189 190 189 175 176 184 184 189 183 174 172 178 156 149 137 126 122 113 107 107
81 134 87 134 153 161 189 243 245 234 121 298 87 49 40 82 99 61 147 20 123 229 115 134 197 252 274 4 15 17 17 23 19 21 36 53 37 22 13 15 14 14 15 13 10 7 5 4 9 18 19 18 8 357 246 198 187 161 154 155 149 141 147 168 176 191 193 193 182 184 187 179 175 177 174 172 175 166 149 143 141 132 127 125 121 118
119 81 77 136 156 187 202 213 257 115 39 71 263 62 15 53 34 96 98 85 186 183 134 232 165 129 11 360 0 1 15 19 10 13 23 19 11 21 28 29 30 28 23 22 18 11 11 13 10 7 9 8 7 3 354 350 26 116 139 135 137 148 152 164 170 181 187 184 183 181 190 182 178 173 176 178 174 164 154 154 157 150 147 142 138 146
69 68 79 100 66 266 242 240 309 99 112 9 25 335 24 45 26 80 78 240 150 113 258 325 229 99 352 346 351 357 4 17 25 22 21 25 24 26 29 37 33 28 21 23 19 16 14 10 10 8 3 6 3 3 10 17 10 1 30 101 99 123 146 161 166 171 167 162 170 182 180 168 164 180 188 187 181 174 167 166 168 164 156 148 143 152
129 100 317 67 26 28 24 28 31 73 58 72 34 356 36 19 47 74 133 176 76 126 193 179 81 83 341 341 333 358 358 26 30 30 32 39 42 43 46 43 39 34 30 30 24 23 22 20 12 11 11 7 8 9 8 10 8 13 4 23 59 78 99 134 145 159 166 168 168 177 174 170 184 186 178 182 191 192 188 190 183 180 182 161 153 159
90 31 158 100 73 27 17 18 18 74 64 47 20 9 1 80 61 80 60 7 79 111 131 112 89 83 16 333 351 354 350 46 50 47 47 42 37 50 57 53 49 45 42 37 32 29 29 27 24 21 21 19 15 11 8 4 6 4 4 353 10 69 55 121 146 158 168 181 185 180 178 177 187 193 187 188 196 204 202 194 202 202 179 163 153 169
101 217 166 124 91 74 9 352 32 53 54 57 27 23 9 75 77 50 88 71 80 67 94 103 91 74 3 9 32 13 35 81 59 48 46 44 42 50 58 54 47 42 36 36 31 31 32 29 25 23 24 17 14 13 11 7 360 359 9 8 1 13 343 121 162 172 170 180 175 165 161 177 195 186 195 200 205 215 211 206 194 195 161 154 166 165
67 154 55 94 99 254 257 176 116 117 97 107 94 330 56 59 81 336 58 318 114 155 160 101 91 119 103 22 54 44 67 63 66 61 54 46 44 52 57 52 49 43 37 29 25 20 22 25 23 25 21 14 14 14 13 7 1 10 360 345 356 358 334 87 159 174 186 175 163 166 158 170 176 189 208 192 208 208 165 96 99 97 100 124 139 146
47 136 146 132 117 205 131 142 137 121 96 68 254 291 57 78 128 113 42 41 50 119 126 146 172 201 170 219 98 56 68 70 63 53 62 54 52 58 58 55 49 44 38 32 30 25 20 17 11 10 13 20 15 15 9 5 13 8 352 345 330 344 12 36 112 163 178 210 199 194 180 182 189 204 203 203 207 192 147 126 122 120 127 161 167 143
67 112 133 148 119 179 107 177 331 92 146 225 273 293 165 160 180 110 53 17 8 74 147 166 132 136 98 101 102 100 81 80 86 60 57 72 59 52 50 49 48 45 40 35 34 30 21 16 12 5 3 3 3 10 359 23 21 1 351 359 1 7 354 357 3 51 25 248 213 210 190 184 201 222 227 191 170 167 168 162 168 158 162 162 163 175
85 84 101 131 99 160 135 60 66 202 234 323 306 252 150 105 107 100 98 57 32 47 84 89 94 105 138 131 122 118 112 115 96 80 55 39 56 59 49 36 28 27 27 22 20 19 14 17 21 16 8 3 351 348 0 7 12 6 11 13 11 14 8 1 352 357 351 107 41 286 235 188 193 207 224 206 174 170 186 186 172 158 172 177 183 184
110 107 166 44 98 69 77 100 147 240 287 331 20 57 85 127 102 86 61 18 26 29 70 92 118 136 146 150 150 143 125 126 97 72 60 46 62 57 47 30 13 18 17 3 10 1 3 359 1 13 356 345 3 2 12 357 342 10 5 15 9 359 2 1 6 356 352 342 325 156 188 228 202 202 186 164 148 157 164 181 188 176 173 166 166 148
135 105 97 105 352 150 158 106 195 1 17 75 89 212 123 32 27 106 137 218 341 324 61 123 99 95 106 21 296 290 164 78 59 39 32 37 22 41 71 40 25 14 8 355 0 348 334 337 351 338 341 350 360 13 6 354 354 2 355 4 354 344 354 359 3 355 349 339 343 323 311 154 174 166 165 156 144 156 160 141 134 118 134 120 133 145
21 156 231 130 239 117 124 70 16 26 252 240 234 281 352 293 264 175 104 47 332 339 345 128 106 67 47 15 21 339 97 60 31 344 330 351 19 6 357 22 12 8 2 351 349 349 353 349 345 344 357 350 350 3 356 7 2 355 12 347 335 336 345 349 339 321 329 325 341 326 290 274 174 169 165 168 168 172 178 168 137 151 145 131 133 131
34 72 100 137 142 75 73 131 187 166 242 204 215 281 301 307 158 130 67 220 304 348 6 112 99 60 72 72 14 78 69 103 215 259 280 337 344 352 343 335 345 349 345 350 349 344 340 338 332 326 345 355 352 338 342 354 2 12 360 356 329 328 331 329 302 304 307 311 313 318 297 220 261 185 171 212 198 171 164 170 162 148 119 124 121 124
36 2 17 68 92 148 146 122 201 192 144 103 252 280 303 318 156 63 97 260 249 343 58 100 112 115 66 44 67 68 97 145 241 253 282 339 321 295 324 337 346 353 356 354 349 344 328 330 349 347 346 336 318 318 324 335 351 358 346 336 352 351 324 302 303 306 308 303 299 292 294 242 195 217 194 197 235 234 160 142 122 126 117 93 102 112
359 350 43 147 134 75 97 120 11 320 282 278 313 301 327 173 94 125 202 228 227 291 20 149 127 149 131 26 31 98 114 169 234 283 327 334 348 343 345 348 346 349 346 351 345 341 340 334 334 322 315 308 308 313 314 328 337 329 326 327 341 307 278 285 297 302 304 300 301 308 297 258 208 241 228 199 165 166 141 135 135 133 125 124 113 111
11 69 335 66 39 83 168 109 185 221 240 8 291 279 275 105 160 217 232 227 164 150 295 149 44 181 145 101 106 139 240 286 301 311 321 334 323 294 314 329 337 343 347 348 344 352 349 337 327 324 325 323 325 323 322 323 318 303 304 321 303 279 275 292 291 291 291 291 300 302 298 305 302 236 229 207 161 162 161 158 148 144 140 135 131 121
264 86 355 97 141 47 40 80 74 155 250 18 302 341 20 115 223 172 156 120 178 153 59 356 31 324 61 358 334 253 291 318 318 323 334 333 353 351 346 347 351 346 344 350 353 357 354 347 340 334 321 316 316 319 319 325 308 300 302 298 279 275 275 273 282 282 282 282 278 271 276 275 270 302 308 229 188 171 168 170 139 131 132 120 107 110
187 87 73 322 182 142 83 119 193 242 276 307 136 139 295 111 145 153 121 85 96 147 180 27 348 327 321 310 338 335 314 318 330 15 351 354 353 343 346 344 342 340 338 338 335 333 346 333 325 320 321 319 320 321 322 325 309 303 301 288 285 292 287 283 277 274 279 279 273 273 257 244 284 291 288 328 288 120 73 43 23 117 122 129 128 126
335 154 183 159 355 108 181 169 159 231 281 335 57 89 88 71 92 140 101 127 121 34 122 89 348 351 345 323 334 339 325 347 343 349 8 337 332 331 329 324 319 317 319 325 324 329 329 326 317 311 306 307 305 312 312 316 311 306 299 294 308 308 311 309 304 285 271 269 271 272 276 287 261 245 242 219 241 209 131 106 289 96 110 129 131 135
23 91 74 79 67 93 48 55 78 40 31 52 40 55 85 66 19 71 99 83 274 207 151 108 320 284 336 5 4 333 348 333 350 345 343 339 333 321 317 314 313 305 303 307 313 320 319 314 310 307 304 304 305 302 292 288 288 290 285 295 301 302 306 308 303 298 280 263 253 259 264 268 265 274 252 242 164 167 204 173 181 165 157 121 117 114
247 266 57 103 161 68 162 214 221 159 161 164 129 89 76 90 148 166 143 161 172 173 205 335 360 34 39 67 43 319 331 347 346 330 326 321 321 318 317 315 313 313 314 314 307 311 309 310 306 304 306 301 305 306 297 291 279 269 276 281 286 295 300 301 298 291 287 272 256 237 232 236 250 245 246 228 205 223 212 181 179 167 155 162 137 137
1 105 76 88 78 104 212 175 203 61 336 9 79 145 122 79 58 56 85 55 96 68 79 80 120 82 82 83 107 91 308 292 304 309 309 307 306 310 309 310 312 315 312 303 304 305 302 300 295 297 297 295 299 298 293 289 285 284 281 278 280 286 293 294 289 286 285 283 278 267 222 219 231 229 224 224 213 202 210 220 215 187 176 178 174 167
245 30 150 156 85 25 51 56 70 44 355 322 339 298 225 204 84 349 10 40 67 91 83 56 71 134 128 157 177 178 313 306 296 304 311 311 311 309 309 308 307 305 308 314 312 311 301 303 300 295 291 289 291 287 283 282 282 284 281 278 273 270 278 282 287 285 282 279 283 275 258 231 227 218 220 194 111 46 84 146 191 245 259 239 196 175
55 63 183 72 91 137 180 197 146 123 257 263 263 232 225 206 138 349 24 59 76 121 132 113 80 140 168 177 232 33 340 313 311 315 309 303 302 306 311 312 311 309 307 303 300 298 299 296 290 291 292 291 286 278 276 277 278 277 276 277 272 262 264 271 276 280 276 276 270 270 270 263 238 196 184 181 144 110 37 30 77 216 208 255 272 264
92 181 134 140 157 212 240 198 173 143 174 222 197 220 236 274 75 22 212 128 80 138 143 111 67 357 347 317 300 239 288 284 293 302 302 306 306 303 301 301 304 304 301 302 301 300 297 296 294 292 289 289 288 281 276 272 272 272 267 261 261 261 261 256 260 261 264 264 262 259 257 255 252 226 192 193 177 166 142 42 19 28 11 304 273 226